STARLINK-36107

Last updated on Fri Dec 19 2025 00:02:09 GMT+0000 (Coordinated Universal Time)

1 66979U 25288W 25352.58336806 -.01514677 00000+0 -66228-2 0 9996 2 66979 43.0015 131.3104 0001379 273.2480 336.0666 15.86333886 2778
UTC large
Height (km)
Speed (km/s)
/
Latitude / Longitude
Inclination (degrees)
Orbital Period (minutes)
Azimuth
Elevation
Range (km)
Doppler Factor

Next 0 passes for location: London (51.5072 / 0.1276)

Sorry there are no passes over London.